Location: 81360 Arifat, France
(43.7204°N, 2.3408°E)
Time: 14:40:47
(UTC+02:00)

Nauka - Visible Passes

Search period start: 20 September 2021 00:00
Search period end: 30 September 2021 00:00
Orbit: 419 x 423 km, 51.6° (Epoch: 19 September)

Date Brightness Start Highest point End Pass type
(mag) Time Alt. Az. Time Alt. Az. Time Alt. Az.
20 Sep ? 20:53:25 10° WSW 20:56:43 53° NNW 20:59:51 11° NE visible
20 Sep ? 22:31:23 10° WNW 22:32:51 18° NW 22:32:51 18° NW visible
21 Sep ? 21:44:11 10° WNW 21:47:01 24° NNW 21:47:52 22° NNE visible
22 Sep ? 20:56:58 10° W 20:59:58 29° NNW 21:02:48 11° NE visible
22 Sep ? 22:34:54 10° NW 22:35:48 15° NW 22:35:48 15° NW visible
23 Sep ? 20:09:47 10° W 20:12:57 37° NNW 20:16:07 10° NE visible
23 Sep ? 21:47:50 10° NW 21:50:27 21° N 21:50:41 20° N visible
24 Sep ? 21:00:39 10° WNW 21:03:21 22° N 21:05:32 13° NE visible
24 Sep ? 22:38:04 10° NW 22:38:31 13° NW 22:38:31 13° NW visible
25 Sep ? 20:13:26 10° WNW 20:16:16 24° NNW 20:19:06 10° NE visible
25 Sep ? 21:51:08 10° NW 21:53:21 22° N 21:53:21 22° N visible
26 Sep ? 21:04:07 10° NW 21:06:47 21° N 21:08:11 17° NE visible
26 Sep ? 22:41:00 10° NW 22:41:10 11° NW 22:41:10 11° NW visible
27 Sep ? 20:17:02 10° NW 20:19:40 21° N 20:22:18 10° NE visible
27 Sep ? 21:54:08 10° NW 21:55:59 24° NNW 21:55:59 24° NNW visible
28 Sep ? 21:07:15 10° NW 21:10:09 26° NNE 21:10:49 24° NE visible
29 Sep ? 20:20:18 10° NW 20:23:04 23° N 20:25:41 11° ENE visible
29 Sep ? 21:57:01 10° NW 21:58:40 26° NW 21:58:40 26° NW visible
